OK6FS-6 Weather Reports


Display with metric or nautical units.
time (UTC)temp
F
wind
direction
speed
MPH
gust
MPH
rain 1hr
in
rain 24hr
in
rain mn
in
humidity
%
barometer
mb
20260505204246 65 82 3.0 4.0 0.00 0.00 0.00 54 1007.2
20260505203027 65 64 4.0 6.0 0.00 0.00 0.00 53 1007.1
20260505201834 66 177 3.0 5.0 0.00 0.00 0.00 52 1007.1
20260505200631 67 79 2.0 4.0 0.00 0.00 0.00 51 1007.0
20260505195438 67 61 3.0 5.0 0.00 0.00 0.00 51 1007.1
20260505194243 68 50 2.0 5.0 0.00 0.00 0.00 50 1007.1
20260505193029 68 53 3.0 5.0 0.00 0.00 0.00 50 1007.0
20260505191836 68 80 4.0 9.0 0.00 0.00 0.00 50 1007.0
20260505190624 68 95 3.0 7.0 0.00 0.00 0.00 49 1006.9
20260505185431 69 72 4.0 10.0 0.00 0.00 0.00 49 1006.9
20260505184229 69 99 3.0 5.0 0.00 0.00 0.00 48 1006.8
20260505183036 70 65 4.0 7.0 0.00 0.00 0.00 47 1006.8
20260505181843 70 67 4.0 6.0 0.00 0.00 0.00 47 1006.7
20260505180621 70 110 3.0 6.0 0.00 0.00 0.00 47 1006.6
20260505175438 71 120 5.0 8.0 0.00 0.00 0.00 46 1006.6
20260505174235 72 114 5.0 8.0 0.00 0.00 0.00 45 1006.5
20260505173043 73 135 4.0 6.0 0.00 0.00 0.00 44 1006.6
20260505171830 73 319 5.0 11.0 0.00 0.00 0.00 43 1006.5
20260505170638 74 190 8.0 12.0 0.00 0.00 0.00 42 1006.6
20260505165435 75 191 7.0 13.0 0.00 0.00 0.00 42 1006.7
20260505164232 75 172 6.0 10.0 0.00 0.00 0.00 41 1006.7
20260505163040 76 149 6.0 10.0 0.00 0.00 0.00 39 1006.6
20260505161827 77 211 5.0 7.0 0.00 0.00 0.00 39 1006.6
20260505160634 78 172 5.0 9.0 0.00 0.00 0.00 37 1006.5
20260505153037 81 155 5.0 9.0 0.00 0.00 0.00 35 1006.6
20260505151834 81 28 5.0 13.0 0.00 0.00 0.00 33 1006.7
20260505150651 82 148 6.0 10.0 0.00 0.00 0.00 32 1006.8
20260505140626 82 130 5.0 9.0 0.00 0.00 0.00 29 1007.7
20260505124231 81 25 4.0 7.0 0.00 0.00 0.00 32 1009.0
20260505123039 81 160 4.0 5.0 0.00 0.00 0.00 33 1009.2
20260505121826 81 198 6.0 10.0 0.00 0.00 0.00 32 1009.4
20260505120632 81 116 4.0 6.0 0.00 0.00 0.00 33 1009.5
20260505115440 80 130 4.0 6.0 0.00 0.00 0.00 35 1009.6
20260505114227 79 111 4.0 7.0 0.00 0.00 0.00 37 1009.8
20260505113034 79 12 3.0 5.0 0.00 0.00 0.00 38 1010.0
20260505111842 78 151 3.0 7.0 0.00 0.00 0.00 36 1010.2
20260505110629 78 175 5.0 8.0 0.00 0.00 0.00 37 1010.4
20260505101829 76 199 3.0 6.0 0.00 0.00 0.00 39 1010.9
20260505100636 76 213 4.0 9.0 0.00 0.00 0.00 38 1011.0
20260505095433 77 153 4.0 5.0 0.00 0.00 0.00 34 1011.1
20260505094242 79 93 3.0 5.0 0.00 0.00 0.00 33 1011.2
20260505093028 79 69 3.0 4.0 0.00 0.00 0.00 34 1011.3
20260505091826 77 131 4.0 6.0 0.00 0.00 0.00 33 1011.4
20260505090633 77 193 3.0 5.0 0.00 0.00 0.00 33 1011.6
20260505085431 76 42 2.0 2.0 0.00 0.00 0.00 35 1011.6
20260505084228 73 185 3.0 5.0 0.00 0.00 0.00 37 1011.9
20260505083046 74 73 3.0 7.0 0.00 0.00 0.00 37 1011.8
20260505081832 73 14 3.0 4.0 0.00 0.00 0.00 36 1011.9
20260505080640 75 27 4.0 4.0 0.00 0.00 0.00 34 1012.1
20260505075457 75 170 2.0 3.0 0.00 0.00 0.00 37 1012.1
20260505074245 72 181 2.0 4.0 0.00 0.00 0.00 39 1012.2
20260505073022 74 155 2.0 4.0 0.00 0.00 0.00 39 1012.3
20260505071826 74 41 3.0 4.0 0.00 0.00 0.00 40 1012.1
20260505070633 70 9 1.0 2.0 0.00 0.00 0.00 42 1012.2
20260505065440 70 33 3.0 4.0 0.00 0.00 0.00 41 1012.3
20260505064227 69 178 3.0 6.0 0.00 0.00 0.00 42 1012.3
20260505063024 66 237 3.0 4.0 0.00 0.00 0.00 47 1012.3
20260505061842 64 34 3.0 4.0 0.00 0.00 0.00 49 1012.4
20260505060628 63 140 2.0 4.0 0.00 0.00 0.00 49 1012.5
20260505055435 62 252 1.0 2.0 0.00 0.00 0.00 50 1012.5
20260505054223 61 17 1.0 1.0 0.00 0.00 0.00 50 1012.4
20260505053030 60 9 0.0 0.0 0.00 0.00 0.00 53 1012.3
20260505051847 59 17 1.0 2.0 0.00 0.00 0.00 53 1012.2
20260505050644 58 0.0 0.0 0.00 0.00 0.00 55 1012.1
20260505040640 54 0.0 0.0 0.00 0.00 0.00 59 1012.0
20260505035437 54 0.0 0.0 0.00 0.00 0.00 58 1012.1
20260505034305 54 0.0 0.0 0.00 0.00 0.00 57 1011.9
20260505033032 55 0.0 0.0 0.00 0.00 0.00 57 1012.0
20260505031840 55 0.0 0.0 0.00 0.00 0.00 57 1012.1
20260505030647 55 0.0 0.0 0.00 0.00 0.00 56 1012.2
20260505025434 56 0.0 0.0 0.00 0.00 0.00 55 1012.3
20260505024242 56 0.0 0.0 0.00 0.00 0.00 55 1012.3
20260505023029 56 0.0 0.0 0.00 0.00 0.00 55 1012.5
20260505021856 56 0.0 0.0 0.00 0.00 0.00 55 1012.4
20260505020644 57 27 1.0 2.0 0.00 0.00 0.00 53 1012.6
20260505015432 57 0.0 0.0 0.00 0.00 0.00 53 1012.6
20260505014240 57 298 1.0 1.0 0.00 0.00 0.00 53 1012.6
20260505013047 59 0.0 0.0 0.00 0.00 0.00 52 1012.5
20260505011854 59 338 0.0 0.0 0.00 0.00 0.00 51 1012.5
20260505010641 59 0.0 0.0 0.00 0.00 0.00 51 1012.5
20260505005428 60 0.0 0.0 0.00 0.00 0.00 49 1012.6
20260505004225 61 0.0 0.0 0.00 0.00 0.00 48 1012.6
20260505003053 62 0.0 0.0 0.00 0.00 0.00 47 1012.7
20260505001839 62 31 2.0 3.0 0.00 0.00 0.00 46 1012.8
20260505000656 63 35 2.0 2.0 0.00 0.00 0.00 46 1012.9
20260504235450 63 0.0 0.0 0.00 0.00 0.00 46 1013.0
20260504234241 63 45 0.0 0.0 0.00 0.00 0.00 46 1013.1
20260504233038 64 0.0 0.0 0.00 0.00 0.00 45 1013.2
20260504231835 64 23 1.0 2.0 0.00 0.00 0.00 45 1013.1
20260504230653 64 40 2.0 2.0 0.00 0.00 0.00 44 1013.1
20260504225441 65 33 2.0 3.0 0.00 0.00 0.00 44 1013.2
20260504224227 65 34 2.0 3.0 0.00 0.00 0.00 43 1013.3
20260504223025 66 35 2.0 3.0 0.00 0.00 0.00 42 1013.3
20260504221832 67 17 2.0 2.0 0.00 0.00 0.00 41 1013.3
20260504220640 67 26 1.0 3.0 0.00 0.00 0.00 41 1013.3
20260504215437 67 32 2.0 4.0 0.00 0.00 0.00 41 1013.3
20260504214244 67 16 1.0 2.0 0.00 0.00 0.00 41 1013.4
20260504213032 67 74 3.0 6.0 0.00 0.00 0.00 41 1013.5
20260504211839 67 69 3.0 5.0 0.00 0.00 0.00 41 1013.6
20260504210646 67 61 2.0 4.0 0.00 0.00 0.00 40 1013.7
20260504205434 67 64 3.0 4.0 0.00 0.00 0.00 40 1013.8